STARLINK-32787 (62809 NORAD) Tracking and Keplerian Element Data

This shows tracking and keplerian element data for the satellite.

Feedback or suggestion? Click here.




ElementValue
Catalog62809
NameSTARLINK-32787
Epoch Orbit289
Epoch Day34.83335648
Epoch Year2025
RAAN13.6268
Inclination53.1468
Eccentricity8.69E-05
Argument of Perigee119.7952
Mean Anonmoly185.2
Mean Motion15.86594373
Decay Rate-0.00933275
L11 62809U 25018D 25034.83335648 -.00933275 00000+0 -39990-2 0 9997
L22 62809 53.1468 13.6268 0000869 119.7952 185.2000 15.86594373 2893



Live tracking and technical data element details for STARLINK-32787 (NORAD 62809). STARLINK-32787 can be tracked NOW for your location showing map with azimuth and elevation plus other details from your city location.







IsCatalogInMostPopularTable: catalog: 62809, numindb: 4
Update: records affected: 1



GetName: 62809 STARLINK-32787

Hit Count: updated at: Sun, 09 Feb 2025 14:10:38 GMT